Regional Weather Roundup
Issued by NWS

Home | Current Version | Previous Version | Text Only | Print | Product List | Glossary Off
Versions: 1 2 3 4 5 6 7 8 9 10 11 12 13 14 15 16 17 18 19 20 21 22 23 24 25 26 27 28 29 30 31 32 33 34 35 36 37 38 39 40 41 42 43 44 45 46 47 48 49 50

000
ASUS43 KMKX 200700
RWRWI

WISCONSIN REGIONAL WEATHER ROUNDUP
NATIONAL WEATHER SERVICE MILWAUKEE/SULLIVAN WI
200 AM CDT WED AUG 20 2014

NOTE: "FAIR" INDICATES FEW OR NO CLOUDS BELOW 12,000 FEET WITH NO
SIGNIFICANT WEATHER AND/OR OBSTRUCTIONS TO VISIBILITY.

WIZ001-002-006>008-014>016-023>028-200800-
NORTHWEST WISCONSIN

CITY           SKY/WX    TMP DP  RH WIND       PRES   REMARKS
SUPERIOR ARPT  CLOUDY    61  60  98 NE7       29.82S
ASHLAND        CLOUDY    60  58  92 N3        29.83S
HAYWARD        MOCLDY    59  59 100 NE5       29.82F
SIREN            N/A     59  58  97 CALM      29.82R FOG
RICE LAKE      FOG       61  59  94 CALM      29.83R VSB 3/4
LADYSMITH      CLEAR     60  59  96 N5        29.83S
EAU CLAIRE     CLEAR     63  63 100 CALM      29.79S FOG
MENOMONIE      SUNNY     64  63  96 CALM      29.80S
NEW RICHMOND   CLEAR     61  61 100 CALM      29.81S FOG
OSCEOLA        CLEAR     62  62 100 CALM      29.83S FOG
$$

WIZ003>005-009-010-017-018-200800-
NORTH CENTRAL WISCONSIN

CITY           SKY/WX    TMP DP  RH WIND       PRES   REMARKS
WOODRUFF       CLOUDY    59  56  89 N8        29.81S
RHINELANDER    CLOUDY    60  57  89 NW5       29.80S
EAGLE RIVER    CLOUDY    58  58  97 NW6       29.80R
LAND O LAKES   CLOUDY    58  57  97 NW3       29.81S
PHILLIPS       CLOUDY    59  58  95 NW6       29.80F
TOMAHAWK       FOG       53  52  97 NW3       29.80F VSB 1
MEDFORD        PTCLDY    58  58 100 CALM      29.80S
MERRILL        CLEAR     59  59 100 NW3       29.80R
$$

WIZ029-030-035-036-043>047-200800-
CENTRAL WISCONSIN

CITY           SKY/WX    TMP DP  RH WIND       PRES   REMARKS
WAUSAU         CLEAR     61  60  97 W5        29.78S
MOSINEE        PTCLDY    61  61 100 CALM      29.80S
MARSHFIELD     CLEAR     61  60  97 NW3       29.79S FOG
STEVENS POINT  PTCLDY    58  58  99 CALM      29.80R
WAUPACA        CLEAR     63  61  94 CALM      29.78S
WAUTOMA        NOT AVBL
WISC RAPIDS    CLEAR     60  59  96 CALM      29.80S FOG
CAMP DOUGLAS   CLEAR     57  57 100 W2        29.80S
$$

WIZ011>013-019>022-031-037>040-048>050-200800-
NORTHEAST WISCONSIN

CITY           SKY/WX    TMP DP  RH WIND       PRES   REMARKS
ANTIGO         CLOUDY    59  58  97 NW3       29.79F
STURGEON BAY   MOCLDY    63  59  88 NW7       29.76S
GREEN BAY      MOCLDY    62  61  96 W5        29.77R
MANITOWOC      NOT AVBL
APPLETON       CLEAR     61  61 100 NW7       29.78S
CLINTONVILLE   CLEAR     61  61 100 CALM      29.78R
OSHKOSH        CLEAR     64  62  93 W6        29.78R
$$

WIZ032>034-041-042-053>061-200800-
SOUTHWEST WISCONSIN

CITY           SKY/WX    TMP DP  RH WIND       PRES   REMARKS
LA CROSSE      CLEAR     67  64  90 S3        29.79S
SPARTA         PTCLDY    59  58  96 CALM      29.80F
VIROQUA        FAIR      63  63 100 CALM      29.82R
BOSCOBEL       CLOUDY    66  63  90 CALM      29.80F
PRAIRIE DU CHI MOCLDY    65  63  91 CALM      29.80S
PLATTEVILLE    FAIR      64  62  94 CALM      29.83S
$$

WIZ056-057-062-063-064-067-068-200800-
SOUTH CENTRAL WISCONSIN

CITY           SKY/WX    TMP DP  RH WIND       PRES   REMARKS
BARABOO/DELLS  CLEAR     63  60  92 CALM      29.80S
LONE ROCK      NOT AVBL
WATERTOWN      CLEAR     64  63  96 CALM      29.79R
MADISON        PTCLDY    65  61  87 CALM      29.80S
MIDDLETON      FAIR      63  63 100 CALM      29.81S
MONROE         CLEAR     66  63  88 W8        29.81S
JANESVILLE     CLEAR     66  63  88 CALM      29.80R
$$

WIZ051-052-058>065-066-070>072-200800-
SOUTHEAST WISCONSIN

CITY           SKY/WX    TMP DP  RH WIND       PRES   REMARKS
MILWAUKEE      CLEAR     69  63  81 W3        29.77S
WAUKESHA       CLEAR     64  61  88 W3        29.80R
MILWAUKEE/TIMM CLEAR     64  61  88 W5        29.78S
RACINE         CLEAR     67  64  90 W5        29.79S
BURLINGTON     PTCLDY    61  61  99 SW5       29.79S
KENOSHA        MOCLDY    64  63  96 W5        29.79S
FOND DU LAC    CLEAR     63  60  90 CALM      29.78R
SHEBOYGAN      CLEAR     62  60  93 CALM      29.77R
WEST BEND      PTCLDY    64  59  82 W5        29.78S
JUNEAU         CLEAR     64  37  37 W3        29.79F
$$

LSZ147-162-200800-
LAKE SUPERIOR

STATION/POSITION TIME  TEMP    WIND        PRES    WAVE
                       AIR SEA DIR/SP/G            HT/PER
                 (UTC) (F)     (DEG/KT/KT) (MB)    (FT/S)
W MID LAKE BUOY  0550   57 56  320/  4/  6 1009.4R   1/ 5
DEVILS ISLAND    0600   60      80/  3/  3 1010.0R
PORT WING        0600   61     110/  4/  6 1010.2
SAXON HARBOR     0640   60      30/  5/  7 1009.8F
$$

LMZ867-665-643>646-200800-
LAKE MICHIGAN

STATION/POSITION TIME  TEMP    WIND        PRES    WAVE
                       AIR SEA DIR/SP/G            HT/PER
                 (UTC) (F)     (DEG/KT/KT) (MB)    (FT/S)
N MID LAKE BUOY  0550   62 62  290/  8/  8 1005.9R   1/ 5
NORTHPORT PIER   0600   65     330/ 10/ 13 1006.8S
SISTER BAY       0611   64     330/  7/  8   N/A
KEWAUNEE LAKESHO 0600   65     320/  2/  4 1006.6R
SHEBOYGAN LAKESH 0600   68 65  270/  6/  7 1007.6R
ATWATER BUOY     0600   70     260/  4     1009.0F
MILWAUKEE LAKESH 0600   72     280/  3/  4   N/A
S MID LAKE BUOY  0550   67 66  280/  4/  4 1007.9R   1/ 4
KENOSHA   LAKESH 0600   71     260/  6/  6 1008.5R
$$

TC  - TEMPERATURE IN CELSIUS
VSB - VISIBILITY IN STATUTE MILES
WCI - WIND CHILL INDEX
HX  - HEAT INDEX



USA.gov is the U.S. government's official web portal to all federal, state and local government web resources and services.